Regional Weather Roundup
Issued by NWS

Home | Current Version | Previous Version | Text Only | Print | Product List | Glossary Off
Versions: 1 2 3 4 5 6 7 8 9 10 11 12 13 14 15 16 17 18 19 20 21 22 23 24 25 26 27 28 29 30 31 32 33 34 35 36 37 38 39 40 41 42 43 44 45 46 47 48 49 50

000
ASUS43 KDTX 021901
RWRMI
MICHIGAN HOURLY REGIONAL WEATHER ROUNDUP
NATIONAL WEATHER SERVICE DETROIT/PONTIAC MI
300 PM EDT WED SEP 02 2015

NOTE: "FAIR" INDICATES FEW OR NO CLOUDS BELOW 12,000 FEET WITH NO
SIGNIFICANT WEATHER AND/OR OBSTRUCTION TO VISIBILITY.

MIZ047>049-052>055-059>063-066>070-074>076-081>083-022000-
SOUTHEAST LOWER MICHIGAN

CITY           SKY/WX    TMP DP  RH WIND       PRES   REMARKS
ADRIAN         MOSUNNY   91  67  44 W10G20    30.02F HX  94
ALMA           MOSUNNY   88  74  65 W8        29.99F HX  96
ANN ARBOR      MOSUNNY   87  73  62 SW7       30.01F HX  94
BAD AXE        PTSUNNY   86  73  65 W9        29.98F HX  92
CARO           MOSUNNY   87  76  70 W7        29.98S HX  97
DETROIT CITY   SUNNY     89  71  55 SW13G20   29.99F HX  95
DETROIT        PTSUNNY   88  72  58 W13       30.01S HX  94
FLINT          PTSUNNY   90  73  57 W9        29.99F HX  98
GROSSE ILE     SUNNY     82  75  78 S10       30.00S
HILLSDALE      MOSUNNY   89  70  54 NW7       30.05S HX  94
HOWELL         PTSUNNY   87  71  57 W9G17     30.01S HX  93

CITY           SKY/WX    TMP DP  RH WIND       PRES   REMARKS
JACKSON        PTSUNNY   87  72  60 W9        30.03S HX  93
LAMBERTVILLE   SUNNY     87  73  63 S5        30.02F HX  94
LANSING        MOSUNNY   87  71  58 W9        30.02S HX  93
LAPEER         FAIR      88  71  58 W6        30.00S HX  94
MASON          MOSUNNY   87  70  56 W7G16     30.02S HX  92
MONROE         SUNNY     87  72  60 SW9       30.01S HX  94
MT. CLEMENS    MOSUNNY   89  71  54 SW12      29.97F HX  95
PONTIAC        MOSUNNY   89  71  55 W10       30.00S HX  95
PORT HOPE        N/A     76  72  87 NE3       29.97S
PORT HURON     SUNNY     86  72  62 S9        29.98F HX  92
TRI CITIES     MOSUNNY   85  74  69 SW5       29.98F HX  92
MIDLAND        FAIR      85  72  65 W5        29.97S HX  90
TROY           PTSUNNY   88  71  57 SW9       30.01S HX  94
SAGINAW HB     MOSUNNY   86  73  66 NW6       29.97F HX  93
$$
MIZ043>046-050>051-056>058-064>065-071>073-077>080-022000-
SOUTHWEST LOWER MICHIGAN

CITY           SKY/WX    TMP DP  RH WIND       PRES   REMARKS
BATTLE CREEK   MOSUNNY   88  70  55 NW9       30.04S HX  93
BENTON HARBOR  SUNNY     85  70  60 W9        30.03S
BIG RAPIDS     SUNNY     87  71  57 W6        30.00F HX  92
COLDWATER      MOSUNNY   91  68  46 W8        30.03F HX  94
FREMONT        FAIR      86  73  64 W7        30.00F HX  93
HOLLAND        SUNNY     84  71  65 W10       30.04R
GRAND RAPIDS   MOSUNNY   88  71  57 NW12      30.02S HX  94
IONIA          FAIR      88  72  59 W10G16    30.00F HX  94
KALAMAZOO      MOSUNNY   87  69  54 NW10      30.03S HX  91
LUDINGTON      SUNNY     81  73  76 SW7       30.01S
MARSHALL       MOSUNNY   90  70  52 W10       30.03S HX  95
MOUNT PLEASANT LGT RAIN  89  70  54 W6        29.98S HX  94
MUSKEGON       MOSUNNY   81  69  67 SW10      30.03R
SOUTH HAVEN    SUNNY     84  69  60 W8        30.03S
$$
MIZ016>042-022000-
NORTHERN LOWER MICHIGAN

CITY           SKY/WX    TMP DP  RH WIND       PRES   REMARKS
ALPENA         LGT RAIN  81  72  74 E6        29.97R
BEAVER ISLAND  CLOUDY    71  67  88 CALM      30.00S
BELLAIRE       PTSUNNY   84  73  69 W3        29.97S HX  90
CADILLAC       MOSUNNY   88  73  60 W8        30.01R HX  94
CHARLEVOIX     CLOUDY    75  72  90 N8        30.01R FOG
FRANKFORT      MOSUNNY   80  73  79 W8        29.99S HAZE
GAYLORD        MOSUNNY   86  70  58 W7        29.99F HX  90
GRAYLING       MOSUNNY   86  70  59 W9        29.99S HX  90
HARBOR SPRINGS PTSUNNY   75  71  88 SW3       29.97F FOG
HOUGHTON LAKE  SUNNY     85  71  63 W6        30.00S THUNDER HX  90
MANISTEE       MOSUNNY   82  72  69 W8        29.99F
OSCODA         SUNNY     88  72  59 S10G17    29.94F HX  94
PELLSTON       PTSUNNY   84  73  69 NW8       29.98S HX  90
ROGERS CITY    MOSUNNY   74  68  83 N5        29.99S
TRAVERSE CITY  PTSUNNY   86  70  58 N3        29.96R THUNDER HX  90
$$
MIZ007>008-015-022000-
EASTERN UPPER MICHIGAN

CITY           SKY/WX    TMP DP  RH WIND       PRES   REMARKS
KINROSS        PTSUNNY   79  72  78 NW6       29.99F
MACKINAC ISLAN PTSUNNY   76  71  82 N5        29.99S
NEWBERRY       CLOUDY    75  70  84 NW5       30.01S
S. S. MARIE    PTSUNNY   77  69  76 W8        29.98R
MUNISING         N/A     67  64  90 NW3       29.98F
$$
MIZ004>006-011>014-085-022000-
CENTRAL UPPER MICHIGAN

CITY           SKY/WX    TMP DP  RH WIND       PRES   REMARKS
MANISTIQUE     LGT RAIN  71  69  94 CALM      30.01R
ESCANABA         N/A     75 N/A N/A NE5       29.96
MENOMINEE      PTSUNNY   72  63  73 E10       29.97R
SAWYER-GWINN   CLOUDY    68  66  94 NE7       30.01S FOG
$$
MIZ001>003-009>011-084-022000-
WESTERN UPPER MICHIGAN

CITY           SKY/WX    TMP DP  RH WIND       PRES   REMARKS
IRON MOUNTAIN  PTSUNNY   75  68  78 N5        30.00S
HOUGHTON       LGT RAIN  69  67  93 S8        30.00F
COPPER HARBOR    N/A     66  61  84 CALM      29.99F
IRONWOOD       CLOUDY    70  68  94 SE9       29.97F
$$

ABBREVIATIONS USED IN REMARKS
   TC - TEMPERATURE IN CELSIUS
  WCI - WIND CHILL INDEX
   HX - HEAT INDEX
  VSB - VISIBILITY




USA.gov is the U.S. government's official web portal to all federal, state and local government web resources and services.